Location: Pianadetto
(44.4000°N, 10.1000°E)
Time: 12:55:55
(UTC+00:00)

GP-B - Visible Passes

Search period start: 26 September 2022 00:00
Search period end: 06 October 2022 00:00
Orbit: 630 x 634 km, 89.8° (Epoch: 25 September)

Date Brightness Start Highest point End Pass type
(mag) Time Alt. Az. Time Alt. Az. Time Alt. Az.
26 Sep 4.7 03:38:25 10° SSE 03:42:30 38° E 03:46:36 10° NNE visible
27 Sep 3.4 03:59:15 10° S 04:03:39 71° E 04:08:05 10° N visible
28 Sep 6.3 02:46:04 10° ESE 02:48:11 13° ENE 02:50:17 10° NE visible
28 Sep 3.1 04:20:31 10° S 04:24:54 62° W 04:29:19 10° N visible
29 Sep 5.5 03:05:39 10° SE 03:09:09 23° ENE 03:12:39 10° NNE visible
29 Sep 3.8 04:42:14 10° SSW 04:46:15 33° W 04:50:17 10° NNW visible
30 Sep 4.4 03:26:04 10° SSE 03:30:13 41° E 03:34:23 10° NNE visible
01 Oct 3.2 03:46:58 10° S 03:51:23 78° E 03:55:49 10° N visible
02 Oct 6.2 02:33:28 10° ESE 02:35:52 15° ENE 02:38:16 10° NE visible
02 Oct 3.1 04:08:17 10° SSW 04:12:38 56° W 04:17:01 10° N visible
03 Oct 5.3 02:53:13 10° SE 02:56:51 25° ENE 03:00:28 10° NNE visible
03 Oct 3.9 04:30:05 10° SSW 04:33:59 30° W 04:37:55 10° NNW visible
04 Oct 4.2 03:13:42 10° SSE 03:17:55 45° E 03:22:09 10° N visible
04 Oct 4.5 04:52:30 10° WSW 04:55:27 17° W 04:58:25 10° NW visible
05 Oct 3.1 03:34:40 10° S 03:39:06 85° E 03:43:33 10° N visible
